Terminal Aerodrome Forecast
Issued by NWS Jackson, KY

Home | Current Version | Previous Version | Text Only | Print | Product List | Glossary On
Versions: 1 2 3 4 5 6 7 8 9 10 11 12 13 14
701
FTUS43 KJKL 020543
TAFLOZ
TAF
KLOZ 020543Z 0206/0306 VRB03KT P6SM FEW040
     FM021700 24005KT 5SM RA BR VCTS OVC060CB
     FM022100 26004KT 5SM RA BR OVC025
     FM022300 VRB03KT P6SM VCSH OVC022=

USA.gov is the U.S. government's official web portal to all federal, state and local government web resources and services.